Location: Ailly
(50.0793°N, 1.9944°E)
Time: 20:39:14
(UTC+00:00)

GRACE-FO 1 - Pass Details

Date: 15 January 2026
Orbit: 447 x 461 km, 89.0° (Epoch: 17 February)

Event Time Altitude Azimuth Distance (km) Brightness Sun altitude
Rises 06:58:26 0° 184° (S) 2,449 8.4 -7.4°
Reaches altitude 10° 07:00:29 10° 187° (S) 1,584 7.4 -7.1°
Maximum altitude 07:03:53 67° 271° (W) 498 4.4 -6.6°
Drops below altitude 10° 07:07:21 10° 355° (N) 1,608 6.9 -6.1°
Sets 07:09:27 0° 358° (N) 2,491 7.9 -5.8°
